| time (UTC) | temp C | wind direction | speed KPH | gust KPH | rain 1hr cm | rain 24hr cm | rain mn cm | humidity % | barometer mb |
| 20260502205634 | 24 | 109 | 1.6 | 6.4 | 0.00 | 0.00 | 0.00 | 28 | 1028.0 |
| 20260502204916 | 24 | 128 | 3.2 | 6.4 | 0.00 | 0.00 | 0.00 | 27 | 1028.0 |
| 20260502204417 | 24 | 145 | 3.2 | 8.0 | 0.00 | 0.00 | 0.00 | 28 | 1028.0 |
| 20260502203915 | 24 | 137 | 3.2 | 8.0 | 0.00 | 0.00 | 0.00 | 29 | 1028.1 |
| 20260502203417 | 25 | 104 | 3.2 | 8.0 | 0.00 | 0.00 | 0.00 | 31 | 1028.1 |
| 20260502203127 | 25 | 89 | 4.8 | 8.0 | 0.00 | 0.00 | 0.00 | 28 | 1028.1 |
| 20260502203015 | 24 | 131 | 3.2 | 8.0 | 0.00 | 0.00 | 0.00 | 28 | 1028.1 |
| 20260502202136 | 25 | 125 | 4.8 | 9.7 | 0.00 | 0.00 | 0.00 | 30 | 1028.2 |
| 20260502201417 | 25 | 114 | 4.8 | 11.3 | 0.00 | 0.00 | 0.00 | 27 | 1028.2 |
| 20260502201145 | 25 | 97 | 4.8 | 14.5 | 0.00 | 0.00 | 0.00 | 27 | 1028.2 |
| 20260502200416 | 25 | 120 | 4.8 | 14.5 | 0.00 | 0.00 | 0.00 | 27 | 1028.3 |
| 20260502195915 | 26 | 130 | 1.6 | 8.0 | 0.00 | 0.00 | 0.00 | 26 | 1028.3 |
| 20260502195415 | 26 | 204 | 0.0 | 6.4 | 0.00 | 0.00 | 0.00 | 25 | 1028.3 |
| 20260502194917 | 26 | 86 | 0.0 | 3.2 | 0.00 | 0.00 | 0.00 | 26 | 1028.4 |
| 20260502194415 | 26 | 338 | 0.0 | 3.2 | 0.00 | 0.00 | 0.00 | 27 | 1028.4 |
| 20260502193916 | 26 | 351 | 1.6 | 4.8 | 0.00 | 0.00 | 0.00 | 26 | 1028.4 |
| 20260502193415 | 25 | 189 | 0.0 | 14.5 | 0.00 | 0.00 | 0.00 | 26 | 1028.5 |
| 20260502192916 | 25 | 125 | 3.2 | 14.5 | 0.00 | 0.00 | 0.00 | 27 | 1028.6 |
| 20260502192414 | 25 | 265 | 1.6 | 8.0 | 0.00 | 0.00 | 0.00 | 27 | 1028.6 |
| 20260502191914 | 25 | 276 | 0.0 | 8.0 | 0.00 | 0.00 | 0.00 | 32 | 1028.6 |
| 20260502191414 | 25 | 35 | 1.6 | 4.8 | 0.00 | 0.00 | 0.00 | 32 | 1028.7 |
| 20260502190914 | 24 | 288 | 1.6 | 4.8 | 0.00 | 0.00 | 0.00 | 34 | 1028.8 |
| 20260502190415 | 23 | 141 | 0.0 | 1.6 | 0.00 | 0.00 | 0.00 | 35 | 1028.9 |
| 20260502185915 | 23 | 124 | 0.0 | 4.8 | 0.00 | 0.00 | 0.00 | 37 | 1028.9 |
| 20260502185415 | 22 | 23 | 0.0 | 8.0 | 0.00 | 0.00 | 0.00 | 37 | 1029.1 |
| 20260502184914 | 22 | 121 | 1.6 | 8.0 | 0.00 | 0.00 | 0.00 | 39 | 1029.1 |
| 20260502184419 | 22 | 45 | 3.2 | 6.4 | 0.00 | 0.00 | 0.00 | 41 | 1029.2 |
| 20260502183913 | 21 | 75 | 0.0 | 8.0 | 0.00 | 0.00 | 0.00 | 42 | 1029.3 |
| 20260502183409 | 21 | 102 | 3.2 | 8.0 | 0.00 | 0.00 | 0.00 | 42 | 1029.4 |
| 20260502182914 | 21 | 99 | 3.2 | 8.0 | 0.00 | 0.00 | 0.00 | 44 | 1029.4 |
| 20260502182413 | 20 | 79 | 3.2 | 11.3 | 0.00 | 0.00 | 0.00 | 44 | 1029.4 |
| 20260502181915 | 20 | 47 | 3.2 | 11.3 | 0.00 | 0.00 | 0.00 | 44 | 1029.6 |
| 20260502181634 | 20 | 207 | 3.2 | 6.4 | 0.00 | 0.00 | 0.00 | 46 | 1029.6 |
| 20260502180914 | 19 | 118 | 3.2 | 6.4 | 0.00 | 0.00 | 0.00 | 48 | 1029.7 |
| 20260502180413 | 18 | 97 | 3.2 | 6.4 | 0.00 | 0.00 | 0.00 | 49 | 1029.8 |
| 20260502180136 | 18 | 144 | 1.6 | 4.8 | 0.00 | 0.00 | 0.00 | 50 | 1029.8 |
| 20260502163910 | 16 | 254 | 0.0 | 0.0 | 0.00 | 0.00 | 0.00 | 51 | 1030.1 |
| 20260502163411 | 16 | 264 | 0.0 | 0.0 | 0.00 | 0.00 | 0.00 | 51 | 1030.2 |
| 20260502162910 | 16 | 343 | 0.0 | 0.0 | 0.00 | 0.00 | 0.00 | 52 | 1030.2 |
| 20260502162411 | 16 | 319 | 0.0 | 0.0 | 0.00 | 0.00 | 0.00 | 51 | 1030.2 |
| 20260502162136 | 16 | 66 | 0.0 | 3.2 | 0.00 | 0.00 | 0.00 | 51 | 1030.3 |
| 20260502161629 | 16 | 65 | 0.0 | 3.2 | 0.00 | 0.00 | 0.00 | 51 | 1030.3 |
| 20260502160910 | 16 | 65 | 0.0 | 3.2 | 0.00 | 0.00 | 0.00 | 52 | 1030.4 |
| 20260502160412 | 16 | 137 | 0.0 | 0.0 | 0.00 | 0.00 | 0.00 | 51 | 1030.4 |
| 20260502151910 | 12 | 300 | 0.0 | 0.0 | 0.00 | 0.00 | 0.00 | 65 | 1030.8 |
| 20260502151408 | 12 | 300 | 0.0 | 0.0 | 0.00 | 0.00 | 0.00 | 66 | 1030.8 |
| 20260502150909 | 12 | 300 | 0.0 | 0.0 | 0.00 | 0.00 | 0.00 | 67 | 1030.8 |
| 20260502150409 | 12 | 298 | 0.0 | 0.0 | 0.00 | 0.00 | 0.00 | 67 | 1030.8 |
| 20260502130406 | 5 | 214 | 3.2 | 3.2 | 0.00 | 0.00 | 0.00 | 82 | 1030.1 |
| 20260502123404 | 6 | 219 | 0.0 | 1.6 | 0.00 | 0.00 | 0.00 | 80 | 1030.2 |
| 20260502122907 | 6 | 207 | 1.6 | 1.6 | 0.00 | 0.00 | 0.00 | 81 | 1030.1 |
| 20260502122407 | 6 | 217 | 0.0 | 0.0 | 0.00 | 0.00 | 0.00 | 79 | 1030.2 |
| 20260502121905 | 6 | 223 | 0.0 | 0.0 | 0.00 | 0.00 | 0.00 | 78 | 1030.2 |
| 20260502121405 | 6 | 223 | 0.0 | 0.0 | 0.00 | 0.00 | 0.00 | 78 | 1030.1 |
| 20260502120905 | 6 | 223 | 0.0 | 0.0 | 0.00 | 0.00 | 0.00 | 77 | 1030.1 |
| 20260502120402 | 7 | 259 | 0.0 | 0.0 | 0.00 | 0.00 | 0.00 | 76 | 1030.1 |
| 20260502115901 | 7 | 259 | 0.0 | 0.0 | 0.00 | 0.00 | 0.00 | 75 | 1030.1 |
| 20260502115402 | 7 | 259 | 0.0 | 1.6 | 0.00 | 0.00 | 0.00 | 74 | 1030.0 |
| 20260502114905 | 7 | 210 | 0.0 | 3.2 | 0.00 | 0.00 | 0.00 | 73 | 1030.0 |
| 20260502114406 | 7 | 200 | 1.6 | 3.2 | 0.00 | 0.00 | 0.00 | 74 | 1029.9 |
| 20260502113905 | 7 | 245 | 0.0 | 3.2 | 0.00 | 0.00 | 0.00 | 73 | 1029.9 |
| 20260502113404 | 8 | 219 | 1.6 | 3.2 | 0.00 | 0.00 | 0.00 | 73 | 1029.9 |
| 20260502112901 | 8 | 204 | 0.0 | 1.6 | 0.00 | 0.00 | 0.00 | 73 | 1029.9 |
| 20260502112400 | 8 | 204 | 0.0 | 1.6 | 0.00 | 0.00 | 0.00 | 73 | 1029.8 |
| 20260502111901 | 8 | 212 | 0.0 | 0.0 | 0.00 | 0.00 | 0.00 | 72 | 1029.9 |
| 20260502111400 | 8 | 230 | 0.0 | 0.0 | 0.00 | 0.00 | 0.00 | 72 | 1029.9 |
| 20260502110902 | 8 | 230 | 0.0 | 0.0 | 0.00 | 0.00 | 0.00 | 72 | 1029.8 |
| 20260502110623 | 8 | 247 | 0.0 | 0.0 | 0.00 | 0.00 | 0.00 | 72 | 1029.8 |
| 20260502105904 | 8 | 244 | 0.0 | 0.0 | 0.00 | 0.00 | 0.00 | 72 | 1029.8 |
| 20260502105403 | 8 | 248 | 0.0 | 0.0 | 0.00 | 0.00 | 0.00 | 71 | 1029.7 |
| 20260502104903 | 8 | 248 | 0.0 | 0.0 | 0.00 | 0.00 | 0.00 | 71 | 1029.7 |
| 20260502104631 | 8 | 248 | 0.0 | 1.6 | 0.00 | 0.00 | 0.00 | 70 | 1029.7 |
| 20260502104122 | 8 | 264 | 0.0 | 1.6 | 0.00 | 0.00 | 0.00 | 70 | 1029.6 |
| 20260502103401 | 8 | 226 | 0.0 | 0.0 | 0.00 | 0.00 | 0.00 | 70 | 1029.8 |
| 20260502102859 | 9 | 217 | 0.0 | 1.6 | 0.00 | 0.00 | 0.00 | 69 | 1029.8 |
| 20260502102402 | 9 | 175 | 0.0 | 4.8 | 0.00 | 0.00 | 0.00 | 69 | 1029.7 |
| 20260502102127 | 9 | 175 | 1.6 | 4.8 | 0.00 | 0.00 | 0.00 | 69 | 1029.7 |
| 20260502101402 | 8 | 235 | 0.0 | 3.2 | 0.00 | 0.00 | 0.00 | 69 | 1029.7 |
| 20260502100902 | 8 | 228 | 0.0 | 0.0 | 0.00 | 0.00 | 0.00 | 69 | 1029.6 |
| 20260502100403 | 9 | 228 | 0.0 | 4.8 | 0.00 | 0.00 | 0.00 | 68 | 1029.5 |
| 20260502090901 | 9 | 233 | 0.0 | 4.8 | 0.00 | 0.00 | 0.00 | 68 | 1029.3 |
| 20260502090358 | 10 | 244 | 1.6 | 4.8 | 0.00 | 0.00 | 0.00 | 67 | 1029.3 |
| 20260502071358 | 12 | 227 | 0.0 | 3.2 | 0.00 | 0.00 | 0.00 | 59 | 1028.9 |
| 20260502070859 | 12 | 226 | 1.6 | 3.2 | 0.00 | 0.00 | 0.00 | 59 | 1028.8 |
| 20260502070358 | 12 | 228 | 0.0 | 3.2 | 0.00 | 0.00 | 0.00 | 60 | 1028.8 |
| 20260502065858 | 12 | 226 | 0.0 | 0.0 | 0.00 | 0.00 | 0.00 | 60 | 1028.9 |
| 20260502065359 | 12 | 226 | 0.0 | 0.0 | 0.00 | 0.00 | 0.00 | 59 | 1028.9 |
| 20260502064858 | 12 | 226 | 0.0 | 3.2 | 0.00 | 0.00 | 0.00 | 57 | 1028.9 |
| 20260502064359 | 12 | 226 | 0.0 | 3.2 | 0.00 | 0.00 | 0.00 | 58 | 1028.8 |
| 20260502063859 | 12 | 230 | 0.0 | 0.0 | 0.00 | 0.00 | 0.00 | 58 | 1028.8 |
| 20260502063357 | 12 | 241 | 0.0 | 0.0 | 0.00 | 0.00 | 0.00 | 59 | 1028.9 |
| 20260502062857 | 12 | 245 | 0.0 | 0.0 | 0.00 | 0.00 | 0.00 | 59 | 1028.7 |
| 20260502062624 | 12 | 243 | 0.0 | 0.0 | 0.00 | 0.00 | 0.00 | 58 | 1028.8 |
| 20260502061857 | 13 | 168 | 0.0 | 0.0 | 0.00 | 0.00 | 0.00 | 58 | 1028.7 |
| 20260502061624 | 13 | 252 | 0.0 | 0.0 | 0.00 | 0.00 | 0.00 | 58 | 1028.8 |
| 20260502060857 | 13 | 219 | 0.0 | 0.0 | 0.00 | 0.00 | 0.00 | 58 | 1028.7 |
| 20260502060358 | 13 | 220 | 0.0 | 0.0 | 0.00 | 0.00 | 0.00 | 58 | 1028.7 |
| 20260502055856 | 13 | 203 | 0.0 | 0.0 | 0.00 | 0.00 | 0.00 | 58 | 1028.7 |
| 20260502055356 | 13 | 252 | 0.0 | 0.0 | 0.00 | 0.00 | 0.00 | 58 | 1028.8 |
| 20260502055118 | 13 | 252 | 0.0 | 0.0 | 0.00 | 0.00 | 0.00 | 58 | 1028.7 |
| 20260502054357 | 13 | 252 | 0.0 | 0.0 | 0.00 | 0.00 | 0.00 | 58 | 1028.7 |
| 20260502053856 | 13 | 252 | 0.0 | 0.0 | 0.00 | 0.00 | 0.00 | 57 | 1028.6 |
| 20260502053356 | 13 | 252 | 0.0 | 0.0 | 0.00 | 0.00 | 0.00 | 57 | 1028.6 |
| 20260502052857 | 13 | 235 | 0.0 | 0.0 | 0.00 | 0.00 | 0.00 | 57 | 1028.5 |
| 20260502051858 | 13 | 226 | 0.0 | 0.0 | 0.00 | 0.00 | 0.00 | 57 | 1028.5 |
| 20260502051356 | 13 | 224 | 0.0 | 0.0 | 0.00 | 0.00 | 0.00 | 58 | 1028.5 |
| 20260502050856 | 12 | 224 | 0.0 | 0.0 | 0.00 | 0.00 | 0.00 | 58 | 1028.5 |
| 20260502050356 | 13 | 230 | 0.0 | 0.0 | 0.00 | 0.00 | 0.00 | 58 | 1028.5 |
| 20260502045855 | 13 | 230 | 0.0 | 0.0 | 0.00 | 0.00 | 0.00 | 57 | 1028.5 |
| 20260502045355 | 13 | 230 | 0.0 | 0.0 | 0.00 | 0.00 | 0.00 | 57 | 1028.4 |
| 20260502044855 | 12 | 223 | 0.0 | 1.6 | 0.00 | 0.00 | 0.00 | 57 | 1028.3 |
| 20260502044356 | 13 | 244 | 0.0 | 1.6 | 0.00 | 0.00 | 0.00 | 58 | 1028.3 |
| 20260502043855 | 13 | 265 | 0.0 | 0.0 | 0.00 | 0.00 | 0.00 | 57 | 1028.2 |
| 20260502043356 | 13 | 265 | 0.0 | 0.0 | 0.00 | 0.00 | 0.00 | 55 | 1028.3 |
| 20260502043333 | 13 | 265 | 0.0 | 0.0 | 0.00 | 0.00 | 0.00 | 55 | 1028.1 |
| 20260502042354 | 13 | 265 | 0.0 | 1.6 | 0.00 | 0.00 | 0.00 | 56 | 1028.1 |
| 20260502042120 | 13 | 265 | 0.0 | 1.6 | 0.00 | 0.00 | 0.00 | 55 | 1028.0 |
| 20260502041354 | 13 | 274 | 0.0 | 3.2 | 0.00 | 0.00 | 0.00 | 55 | 1027.8 |
| 20260502040855 | 13 | 217 | 0.0 | 3.2 | 0.00 | 0.00 | 0.00 | 55 | 1027.8 |
| 20260502040354 | 14 | 217 | 0.0 | 0.0 | 0.00 | 0.00 | 0.00 | 54 | 1027.8 |
| 20260502035855 | 15 | 217 | 0.0 | 0.0 | 0.00 | 0.00 | 0.00 | 53 | 1027.6 |
| 20260502035354 | 15 | 210 | 0.0 | 0.0 | 0.00 | 0.00 | 0.00 | 52 | 1027.6 |
| 20260502034855 | 16 | 210 | 0.0 | 0.0 | 0.00 | 0.00 | 0.00 | 50 | 1027.3 |
| 20260502034353 | 16 | 210 | 0.0 | 1.6 | 0.00 | 0.00 | 0.00 | 47 | 1027.2 |
| 20260502033858 | 16 | 210 | 0.0 | 4.8 | 0.00 | 0.00 | 0.00 | 47 | 1027.2 |
| 20260502033614 | 16 | 185 | 1.6 | 6.4 | 0.00 | 0.00 | 0.00 | 47 | 1027.2 |
| 20260502032854 | 16 | 221 | 3.2 | 6.4 | 0.00 | 0.00 | 0.00 | 48 | 1027.1 |
| 20260502032354 | 16 | 224 | 0.0 | 1.6 | 0.00 | 0.00 | 0.00 | 49 | 1027.0 |
| 20260502031853 | 16 | 227 | 0.0 | 3.2 | 0.00 | 0.00 | 0.00 | 48 | 1027.0 |
| 20260502031354 | 17 | 227 | 0.0 | 3.2 | 0.00 | 0.00 | 0.00 | 47 | 1026.9 |
| 20260502031122 | 17 | 220 | 1.6 | 3.2 | 0.00 | 0.00 | 0.00 | 46 | 1026.9 |
| 20260502030616 | 17 | 197 | 1.6 | 3.2 | 0.00 | 0.00 | 0.00 | 44 | 1026.9 |
| 20260502025852 | 18 | 178 | 1.6 | 3.2 | 0.00 | 0.00 | 0.00 | 43 | 1026.8 |
| 20260502025353 | 18 | 166 | 0.0 | 1.6 | 0.00 | 0.00 | 0.00 | 43 | 1026.8 |
| 20260502025113 | 18 | 125 | 0.0 | 0.0 | 0.00 | 0.00 | 0.00 | 42 | 1026.7 |
| 20260502024621 | 19 | 125 | 0.0 | 0.0 | 0.00 | 0.00 | 0.00 | 43 | 1026.7 |
| 20260502023852 | 20 | 116 | 0.0 | 0.0 | 0.00 | 0.00 | 0.00 | 42 | 1026.7 |
| 20260502023616 | 20 | 116 | 0.0 | 0.0 | 0.00 | 0.00 | 0.00 | 41 | 1026.6 |
| 20260502022852 | 21 | 116 | 0.0 | 1.6 | 0.00 | 0.00 | 0.00 | 38 | 1026.6 |
| 20260502022351 | 21 | 116 | 0.0 | 1.6 | 0.00 | 0.00 | 0.00 | 34 | 1026.6 |
| 20260502022114 | 21 | 116 | 0.0 | 1.6 | 0.00 | 0.00 | 0.00 | 32 | 1026.5 |
| 20260502021351 | 21 | 116 | 0.0 | 0.0 | 0.00 | 0.00 | 0.00 | 33 | 1026.6 |
| 20260502021117 | 22 | 116 | 0.0 | 1.6 | 0.00 | 0.00 | 0.00 | 34 | 1026.6 |
| 20260502020352 | 22 | 116 | 0.0 | 3.2 | 0.00 | 0.00 | 0.00 | 33 | 1026.5 |
| 20260502015852 | 22 | 117 | 0.0 | 4.8 | 0.00 | 0.00 | 0.00 | 31 | 1026.5 |
| 20260502015620 | 22 | 125 | 0.0 | 4.8 | 0.00 | 0.00 | 0.00 | 31 | 1026.6 |
| 20260502014850 | 22 | 141 | 3.2 | 4.8 | 0.00 | 0.00 | 0.00 | 30 | 1026.6 |
| 20260502014351 | 22 | 134 | 1.6 | 8.0 | 0.00 | 0.00 | 0.00 | 31 | 1026.6 |
| 20260502013850 | 22 | 142 | 3.2 | 9.7 | 0.00 | 0.00 | 0.00 | 29 | 1026.6 |
| 20260502013352 | 22 | 113 | 3.2 | 9.7 | 0.00 | 0.00 | 0.00 | 30 | 1026.6 |
| 20260502012850 | 22 | 140 | 4.8 | 11.3 | 0.00 | 0.00 | 0.00 | 28 | 1026.6 |
| 20260502012351 | 23 | 130 | 6.4 | 11.3 | 0.00 | 0.00 | 0.00 | 28 | 1026.6 |
| 20260502012341 | 23 | 142 | 8.0 | 16.1 | 0.00 | 0.00 | 0.00 | 28 | 1026.6 |
| 20260502011350 | 23 | 107 | 8.0 | 16.1 | 0.00 | 0.00 | 0.00 | 28 | 1026.7 |
| 20260502010852 | 23 | 134 | 8.0 | 14.5 | 0.00 | 0.00 | 0.00 | 27 | 1026.7 |
| 20260502010350 | 23 | 133 | 6.4 | 14.5 | 0.00 | 0.00 | 0.00 | 27 | 1026.8 |
| 20260502005851 | 23 | 103 | 4.8 | 11.3 | 0.00 | 0.00 | 0.00 | 28 | 1026.7 |
| 20260502005606 | 23 | 76 | 4.8 | 16.1 | 0.00 | 0.00 | 0.00 | 26 | 1026.7 |
| 20260502005336 | 23 | 96 | 8.0 | 16.1 | 0.00 | 0.00 | 0.00 | 27 | 1026.8 |
| 20260502004349 | 23 | 128 | 4.8 | 14.5 | 0.00 | 0.00 | 0.00 | 27 | 1026.8 |
| 20260502004337 | 23 | 94 | 3.2 | 14.5 | 0.00 | 0.00 | 0.00 | 27 | 1026.8 |
| 20260502003350 | 23 | 97 | 8.0 | 14.5 | 0.00 | 0.00 | 0.00 | 27 | 1026.8 |
| 20260502002849 | 23 | 89 | 6.4 | 14.5 | 0.00 | 0.00 | 0.00 | 26 | 1026.9 |
| 20260502002350 | 23 | 116 | 3.2 | 17.7 | 0.00 | 0.00 | 0.00 | 26 | 1026.9 |
| 20260502001849 | 23 | 97 | 8.0 | 17.7 | 0.00 | 0.00 | 0.00 | 26 | 1027.0 |
| 20260502001613 | 24 | 118 | 8.0 | 17.7 | 0.00 | 0.00 | 0.00 | 25 | 1027.0 |
| 20260502000849 | 24 | 72 | 4.8 | 16.1 | 0.00 | 0.00 | 0.00 | 27 | 1027.0 |
| 20260502000350 | 24 | 58 | 3.2 | 16.1 | 0.00 | 0.00 | 0.00 | 27 | 1027.0 |
| 20260502000109 | 23 | 138 | 8.0 | 16.1 | 0.00 | 0.00 | 0.00 | 26 | 1027.1 |
| 20260501235349 | 23 | 137 | 8.0 | 11.3 | 0.00 | 0.00 | 0.00 | 26 | 1027.2 |
| 20260501234849 | 23 | 117 | 4.8 | 14.5 | 0.00 | 0.00 | 0.00 | 26 | 1027.1 |
| 20260501234348 | 23 | 141 | 4.8 | 14.5 | 0.00 | 0.00 | 0.00 | 26 | 1027.1 |
| 20260501233849 | 23 | 133 | 6.4 | 9.7 | 0.00 | 0.00 | 0.00 | 26 | 1027.2 |
| 20260501233348 | 23 | 118 | 4.8 | 9.7 | 0.00 | 0.00 | 0.00 | 26 | 1027.2 |
| 20260501232849 | 23 | 151 | 6.4 | 11.3 | 0.00 | 0.00 | 0.00 | 25 | 1027.2 |
| 20260501232348 | 23 | 158 | 4.8 | 11.3 | 0.00 | 0.00 | 0.00 | 26 | 1027.2 |
| 20260501231849 | 23 | 110 | 3.2 | 11.3 | 0.00 | 0.00 | 0.00 | 26 | 1027.3 |
| 20260501231347 | 23 | 82 | 3.2 | 11.3 | 0.00 | 0.00 | 0.00 | 26 | 1027.5 |
| 20260501230848 | 23 | 127 | 6.4 | 14.5 | 0.00 | 0.00 | 0.00 | 27 | 1027.3 |
| 20260501230347 | 23 | 113 | 4.8 | 14.5 | 0.00 | 0.00 | 0.00 | 27 | 1027.5 |
| 20260501225847 | 23 | 96 | 0.0 | 11.3 | 0.00 | 0.00 | 0.00 | 27 | 1027.6 |
| 20260501225348 | 23 | 113 | 4.8 | 11.3 | 0.00 | 0.00 | 0.00 | 26 | 1027.6 |
| 20260501224847 | 23 | 144 | 4.8 | 8.0 | 0.00 | 0.00 | 0.00 | 27 | 1027.6 |
| 20260501224348 | 22 | 133 | 6.4 | 14.5 | 0.00 | 0.00 | 0.00 | 26 | 1027.7 |
| 20260501223847 | 22 | 106 | 6.4 | 14.5 | 0.00 | 0.00 | 0.00 | 27 | 1027.7 |
| 20260501223348 | 23 | 131 | 9.7 | 14.5 | 0.00 | 0.00 | 0.00 | 26 | 1027.7 |
| 20260501223113 | 23 | 134 | 6.4 | 14.5 | 0.00 | 0.00 | 0.00 | 26 | 1027.7 |
| 20260501222346 | 23 | 120 | 4.8 | 16.1 | 0.00 | 0.00 | 0.00 | 25 | 1027.7 |
| 20260501222105 | 23 | 144 | 8.0 | 16.1 | 0.00 | 0.00 | 0.00 | 26 | 1027.8 |
| 20260501221345 | 23 | 144 | 6.4 | 11.3 | 0.00 | 0.00 | 0.00 | 25 | 1027.8 |
| 20260501220847 | 23 | 199 | 8.0 | 11.3 | 0.00 | 0.00 | 0.00 | 25 | 1027.8 |
| 20260501220612 | 23 | 135 | 4.8 | 14.5 | 0.00 | 0.00 | 0.00 | 27 | 1027.9 |
| 20260501215847 | 23 | 145 | 6.4 | 14.5 | 0.00 | 0.00 | 0.00 | 25 | 1028.0 |
| 20260501215608 | 23 | 135 | 8.0 | 14.5 | 0.00 | 0.00 | 0.00 | 26 | 1027.9 |
| 20260501214847 | 23 | 209 | 8.0 | 14.5 | 0.00 | 0.00 | 0.00 | 26 | 1028.0 |
| 20260501214614 | 23 | 107 | 6.4 | 14.5 | 0.00 | 0.00 | 0.00 | 25 | 1028.0 |
| 20260501213846 | 23 | 38 | 4.8 | 9.7 | 0.00 | 0.00 | 0.00 | 25 | 1028.0 |
| 20260501213346 | 23 | 162 | 1.6 | 14.5 | 0.00 | 0.00 | 0.00 | 25 | 1028.0 |
| 20260501212846 | 23 | 140 | 8.0 | 14.5 | 0.00 | 0.00 | 0.00 | 25 | 1028.1 |
| 20260501212607 | 23 | 134 | 3.2 | 8.0 | 0.00 | 0.00 | 0.00 | 26 | 1028.1 |
| 20260501212113 | 23 | 226 | 1.6 | 6.4 | 0.00 | 0.00 | 0.00 | 27 | 1028.2 |
| 20260501211346 | 23 | 75 | 1.6 | 8.0 | 0.00 | 0.00 | 0.00 | 27 | 1028.2 |
| 20260501210845 | 23 | 41 | 1.6 | 9.7 | 0.00 | 0.00 | 0.00 | 26 | 1028.2 |
| 20260501210834 | 23 | 76 | 4.8 | 14.5 | 0.00 | 0.00 | 0.00 | 26 | 1028.2 |
| 20260501210106 | 23 | 99 | 8.0 | 14.5 | 0.00 | 0.00 | 0.00 | 24 | 1028.3 |